timestamp,surface_pressure_avg,surface_temp_avg,battery_voltage,lat,long
2020-09-16 00:09:01+00:00,343.8413,16.08,12.81,47.84626,-54.09684
2020-09-16 00:19:01+00:00,335.4346,16.1,12.73,47.84626,-54.09684
2020-09-16 00:29:01+00:00,329.1146,16.1,12.73,47.84626,-54.09684
2020-09-16 00:39:01+00:00,325.3696,16.13,12.73,47.84626,-54.09684
2020-09-16 00:49:01+00:00,316.5229,16.16,12.73,47.84626,-54.09684
2020-09-16 00:59:01+00:00,306.2963,16.2,12.73,47.84626,-54.09684
2020-09-16 01:09:01+00:00,298.5663,16.2,12.73,47.84626,-54.09684
2020-09-16 01:19:01+00:00,293.6147,16.2,12.73,47.84626,-54.09684
2020-09-16 01:29:01+00:00,282.5497,16.2,12.73,47.84626,-54.09684
2020-09-16 01:39:01+00:00,267.9881,16.2,12.73,47.84626,-54.09684
2020-09-16 01:49:01+00:00,260.1548,16.18,12.73,47.84626,-54.09684
2020-09-16 01:59:01+00:00,251.6548,16.19,12.73,47.84626,-54.09684
2020-09-16 02:09:01+00:00,247.3097,16.2,12.73,47.84626,-54.09684
2020-09-16 02:19:01+00:00,243.0064,16.2,12.73,47.84626,-54.09684
2020-09-16 02:29:01+00:00,234.6731,16.2,12.73,47.84626,-54.09684
2020-09-16 02:39:01+00:00,222.2414,16.29,12.73,47.84626,-54.09684
2020-09-16 02:49:01+00:00,216.0648,16.29,12.73,47.84626,-54.09684
2020-09-16 02:59:01+00:00,214.5014,16.29,12.73,47.84626,-54.09684
2020-09-16 03:09:01+00:00,209.7698,16.21,12.73,47.84626,-54.09684
2020-09-16 03:19:01+00:00,205.2531,16.2,12.73,47.84626,-54.09684
2020-09-16 03:29:01+00:00,199.9664,16.15,12.73,47.84626,-54.09684
2020-09-16 03:39:01+00:00,192.7681,16.1,12.73,47.84626,-54.09684
2020-09-16 03:49:01+00:00,188.5148,16.0,12.73,47.84626,-54.09684
2020-09-16 03:59:01+00:00,189.1531,16.0,12.73,47.84626,-54.09684
2020-09-16 04:09:01+00:00,188.1781,15.98,12.73,47.84626,-54.09684
2020-09-16 04:19:01+00:00,185.5381,16.0,12.73,47.84626,-54.09684
2020-09-16 04:29:01+00:00,186.7297,16.06,12.73,47.84626,-54.09684
2020-09-16 04:39:01+00:00,185.8282,16.1,12.73,47.84626,-54.09684
2020-09-16 04:49:01+00:00,184.8781,16.1,12.73,47.84626,-54.09684
2020-09-16 04:59:01+00:00,188.0615,16.17,12.73,47.84626,-54.09684
2020-09-16 05:09:01+00:00,188.5665,16.2,12.73,47.84626,-54.09684
2020-09-16 05:19:01+00:00,186.8147,16.22,12.73,47.84626,-54.09684
2020-09-16 05:29:01+00:00,187.3565,16.27,12.73,47.84626,-54.09684
2020-09-16 05:39:01+00:00,191.1381,16.29,12.73,47.84626,-54.09684
2020-09-16 05:49:01+00:00,191.8232,16.3,12.73,47.84626,-54.09684
2020-09-16 05:59:01+00:00,194.3798,16.3,12.73,47.84626,-54.09684
2020-09-16 06:09:01+00:00,209.9198,16.23,12.73,47.84626,-54.09684
2020-09-16 06:19:01+00:00,221.5048,16.2,12.73,47.84626,-54.09684
2020-09-16 06:29:01+00:00,219.3998,16.2,12.73,47.84626,-54.09684
2020-09-16 06:39:01+00:00,223.8448,16.2,12.73,47.84626,-54.09684
2020-09-16 06:49:01+00:00,234.8881,16.2,12.73,47.84626,-54.09684
2020-09-16 06:59:01+00:00,237.1714,16.2,12.73,47.84626,-54.09684
2020-09-16 07:09:01+00:00,237.3498,16.19,12.73,47.84626,-54.09684
2020-09-16 07:19:01+00:00,244.9498,16.19,12.73,47.84626,-54.09684
2020-09-16 07:29:01+00:00,253.4864,16.17,12.73,47.84626,-54.09684
2020-09-16 07:39:01+00:00,257.0614,16.12,12.73,47.84626,-54.09684
2020-09-16 07:49:01+00:00,259.9581,16.1,12.73,47.84626,-54.09684
2020-09-16 07:59:01+00:00,270.9897,16.1,12.73,47.84626,-54.09684
2020-09-16 08:09:01+00:00,283.438,16.0,12.73,47.84626,-54.09684
2020-09-16 08:19:01+00:00,290.1013,16.0,12.73,47.84626,-54.09684
2020-09-16 08:29:01+00:00,292.8313,16.0,12.73,47.84626,-54.09684
2020-09-16 08:39:01+00:00,301.1546,15.98,12.73,47.84626,-54.09684
2020-09-16 08:49:01+00:00,310.9597,15.9,12.73,47.84626,-54.09684
2020-09-16 08:59:01+00:00,316.4362,15.93,12.73,47.84626,-54.09684
2020-09-16 09:09:01+00:00,316.488,15.95,12.73,47.84626,-54.09684
2020-09-16 09:19:00+00:00,322.798,15.9,12.65,47.84626,-54.09684
2020-09-16 09:29:00+00:00,337.7847,15.9,12.65,47.84626,-54.09684
2020-09-16 09:39:00+00:00,341.4747,15.9,12.65,47.84626,-54.09684
2020-09-16 09:49:00+00:00,337.1113,15.9,12.65,47.84626,-54.09684
2020-09-16 09:59:00+00:00,340.4181,15.9,12.65,47.84626,-54.09684
2020-09-16 10:09:00+00:00,345.1062,15.9,12.65,47.84626,-54.09684
2020-09-16 10:19:01+00:00,346.5912,15.9,13.29,47.84626,-54.09684
2020-09-16 10:29:01+00:00,343.5463,15.91,13.29,47.84626,-54.09684
2020-09-16 10:39:01+00:00,347.1763,15.9,13.29,47.84626,-54.09684
2020-09-16 10:49:01+00:00,348.07800000000015,15.9,13.29,47.84626,-54.09684
2020-09-16 10:59:01+00:00,345.6412,15.93,13.29,47.84626,-54.09684
2020-09-16 11:09:01+00:00,345.5163,15.94,13.29,47.84626,-54.09684
2020-09-16 11:19:01+00:00,347.9914,15.91,14.48,47.84626,-54.09684
2020-09-16 11:29:01+00:00,346.4097,15.92,14.48,47.84626,-54.09684
2020-09-16 11:39:01+00:00,341.8397,15.93,14.48,47.84626,-54.09684
2020-09-16 11:49:01+00:00,336.4797,15.93,14.48,47.84626,-54.09684
2020-09-16 11:59:01+00:00,334.3079,15.94,14.48,47.84626,-54.09684
2020-09-16 12:09:01+00:00,330.1381,15.94,14.48,47.84626,-54.09684
2020-09-16 12:19:01+00:00,328.3697,15.93,14.56,47.84626,-54.09684
2020-09-16 12:29:01+00:00,324.218,15.96,14.56,47.84626,-54.09684
2020-09-16 12:39:01+00:00,317.2046,15.9,14.56,47.84626,-54.09684
2020-09-16 12:49:01+00:00,310.6514,15.9,14.56,47.84626,-54.09684
2020-09-16 12:59:01+00:00,303.028,15.9,14.56,47.84626,-54.09684
2020-09-16 13:09:01+00:00,296.3347,15.8,14.56,47.84626,-54.09684
2020-09-16 13:19:01+00:00,285.543,15.7,14.56,47.84626,-54.09684
2020-09-16 13:29:01+00:00,274.5881,15.68,14.56,47.84626,-54.09684
2020-09-16 13:39:01+00:00,267.8347,15.6,14.56,47.84626,-54.09684
2020-09-16 13:49:01+00:00,264.4597,15.67,14.56,47.84626,-54.09684
2020-09-16 13:59:01+00:00,250.7347,15.6,14.56,47.84626,-54.09684
2020-09-16 14:09:01+00:00,235.7014,15.57,14.56,47.84626,-54.09684
2020-09-16 14:19:01+00:00,233.6463,15.58,14.48,47.84626,-54.09684
2020-09-16 14:29:01+00:00,231.7481,15.6,14.48,47.84626,-54.09684
2020-09-16 14:39:01+00:00,217.5247,15.6,14.48,47.84626,-54.09684
2020-09-16 14:49:01+00:00,208.9365,15.6,14.48,47.84626,-54.09684
2020-09-16 14:59:01+00:00,212.0631,15.6,14.48,47.84626,-54.09684
2020-09-16 15:09:01+00:00,209.2981,15.63,14.48,47.84626,-54.09684
2020-09-16 15:19:01+00:00,196.3748,15.67,14.4,47.84626,-54.09684
2020-09-16 15:29:01+00:00,188.6014,15.69,14.4,47.84626,-54.09684
2020-09-16 15:39:01+00:00,191.0881,15.7,14.4,47.84626,-54.09684
2020-09-16 15:49:01+00:00,186.8464,15.7,14.4,47.84626,-54.09684
2020-09-16 15:59:01+00:00,180.1747,15.7,14.4,47.84626,-54.09684
2020-09-16 16:09:01+00:00,179.6865,15.7,14.4,47.84626,-54.09684
2020-09-16 16:19:01+00:00,180.7231,15.72,14.32,47.84626,-54.09684
2020-09-16 16:29:01+00:00,176.4499,15.78,14.32,47.84626,-54.09684
2020-09-16 16:39:01+00:00,173.8648,15.8,14.32,47.84626,-54.09684
2020-09-16 16:49:01+00:00,177.4449,15.8,14.32,47.84626,-54.09684
2020-09-16 16:59:01+00:00,174.5215,15.8,14.32,47.84626,-54.09684
2020-09-16 17:09:01+00:00,167.5682,15.8,14.32,47.84626,-54.09684
2020-09-16 17:19:01+00:00,169.5565,15.8,14.16,47.84626,-54.09684
2020-09-16 17:29:01+00:00,172.7948,15.89,14.16,47.84626,-54.09684
2020-09-16 17:39:01+00:00,167.5431,15.99,14.16,47.84626,-54.09684
2020-09-16 17:49:01+00:00,172.6781,16.0,14.16,47.84626,-54.09684
2020-09-16 17:59:01+00:00,186.0415,16.0,14.16,47.84626,-54.09684
2020-09-16 18:09:01+00:00,190.8398,16.0,14.16,47.84626,-54.09684
2020-09-16 18:19:01+00:00,190.1797,16.0,14.0,47.84626,-54.09684
2020-09-16 18:29:01+00:00,199.0248,16.0,14.0,47.84626,-54.09684
2020-09-16 18:39:01+00:00,212.0965,16.0,14.0,47.84626,-54.09684
2020-09-16 18:49:01+00:00,213.9931,16.0,14.0,47.84626,-54.09684
2020-09-16 18:59:01+00:00,213.4081,16.01,14.0,47.84626,-54.09684
2020-09-16 19:09:01+00:00,220.7747,16.0,14.0,47.84626,-54.09684
2020-09-16 19:19:01+00:00,233.2114,16.0,13.84,47.84626,-54.09684
2020-09-16 19:29:01+00:00,231.6298,16.0,13.84,47.84626,-54.09684
2020-09-16 19:39:01+00:00,228.6797,16.0,13.84,47.84626,-54.09684
2020-09-16 19:49:01+00:00,238.3848,15.99,13.84,47.84626,-54.09684
2020-09-16 19:59:01+00:00,252.113,15.96,13.84,47.84626,-54.09684
2020-09-16 20:09:01+00:00,256.1431,15.9,13.84,47.84626,-54.09684
2020-09-16 20:19:01+00:00,258.073,15.9,13.68,47.84626,-54.09684
2020-09-16 20:29:01+00:00,269.953,15.9,13.68,47.84626,-54.09684
2020-09-16 20:39:01+00:00,283.7197,15.9,13.68,47.84626,-54.09684
2020-09-16 20:49:01+00:00,284.6381,15.9,13.68,47.84626,-54.09684
2020-09-16 20:59:01+00:00,286.2464,15.9,13.68,47.84626,-54.09684
2020-09-16 21:09:01+00:00,301.8781,15.9,13.68,47.84626,-54.09684
2020-09-16 21:19:01+00:00,314.2464,15.88,13.37,47.84626,-54.09684
2020-09-16 21:29:01+00:00,315.658,15.89,13.37,47.84626,-54.09684
2020-09-16 21:39:01+00:00,325.0063,15.88,13.37,47.84626,-54.09684
2020-09-16 21:49:01+00:00,342.1247,15.87,13.37,47.84626,-54.09684
2020-09-16 21:59:01+00:00,342.7713,15.85,13.37,47.84626,-54.09684
2020-09-16 22:09:01+00:00,342.4813,15.84,13.37,47.84626,-54.09684
2020-09-16 22:19:01+00:00,354.3196,15.83,13.05,47.84626,-54.09684
2020-09-16 22:29:01+00:00,365.3696,15.8,13.05,47.84626,-54.09684
2020-09-16 22:39:01+00:00,359.0079,15.8,13.05,47.84626,-54.09684
2020-09-16 22:49:01+00:00,354.533,15.8,13.05,47.84626,-54.09684
2020-09-16 22:59:01+00:00,364.1163,15.8,13.05,47.84626,-54.09684
2020-09-16 23:09:01+00:00,366.3062,15.8,13.05,47.84626,-54.09684
2020-09-16 23:19:01+00:00,355.5662,15.8,12.81,47.84626,-54.09684
2020-09-16 23:29:01+00:00,354.18300000000005,15.8,12.81,47.84626,-54.09684
2020-09-16 23:39:01+00:00,358.963,15.8,12.81,47.84626,-54.09684
2020-09-16 23:49:01+00:00,353.8947,15.8,12.81,47.84626,-54.09684
2020-09-16 23:59:01+00:00,347.1796,15.8,12.81,47.84626,-54.09684
